This is the latest recevied weather packets stored in our database for station/object K1BES. If no packets are shown the sender has not sent any weather packets the latest 10 day(s).
| Time | Temp. | Humidity | Pressure | Rain* | Wind** | Luminosity | Snow |
|---|---|---|---|---|---|---|---|
| 1777285033 | 20° C | 97% | 1016 hPa | 0 mm | - | 0 W/m² | - |
| 1777284731 | 20° C | 96% | 1015.9 hPa | 0 mm | - | 0 W/m² | - |
| 1777284427 | 20° C | 96% | 1016.1 hPa | 0 mm | - | 0 W/m² | - |
| 1777284124 | 20.56° C | 96% | 1015.7 hPa | 0 mm | - | 0 W/m² | - |
| 1777283821 | 20.56° C | 96% | 1015.7 hPa | 0 mm | - | 0 W/m² | - |
| 1777283518 | 20.56° C | 96% | 1015.7 hPa | 0 mm | - | 0 W/m² | - |
| 1777283217 | 20.56° C | 96% | 1015.5 hPa | 0 mm | - | 0 W/m² | - |
| 1777282915 | 20.56° C | 97% | 1015.7 hPa | 0 mm | - | 0 W/m² | - |
| 1777282609 | 21.11° C | 97% | 1015.3 hPa | 0 mm | - | 0 W/m² | - |
| 1777282306 | 21.11° C | 97% | 1015.3 hPa | 0 mm | - | 0 W/m² | - |
| 1777282004 | 21.11° C | 97% | 1015.5 hPa | 0 mm | - | 0 W/m² | - |
| 1777281701 | 20.56° C | 97% | 1015.1 hPa | 0 mm | - | 0 W/m² | - |
| 1777281398 | 20.56° C | 97% | 1015.5 hPa | 0 mm | - | 0 W/m² | - |
| 1777281094 | 20.56° C | 97% | 1015.6 hPa | 0 mm | - | 0 W/m² | - |
| 1777280792 | 20.56° C | 97% | 1015.1 hPa | 0 mm | - | 0 W/m² | - |
| 1777280488 | 20.56° C | 97% | 1015.3 hPa | 0 mm | - | 0 W/m² | - |
| 1777280186 | 20.56° C | 97% | 1015.2 hPa | 0 mm | - | 0 W/m² | - |
| 1777279881 | 20.56° C | 97% | 1015.1 hPa | 0 mm | - | 0 W/m² | - |
| 1777279579 | 20.56° C | 97% | 1015 hPa | 0 mm | - | 0 W/m² | - |
| 1777279275 | 20.56° C | 97% | 1015.1 hPa | 0 mm | - | 0 W/m² | - |
| 1777278974 | 20° C | 97% | 1015.2 hPa | 0 mm | - | 0 W/m² | - |
| 1777278669 | 18.89° C | 96% | 1015.2 hPa | 0 mm | - | 0 W/m² | - |
| 1777278365 | 19.44° C | 96% | 1014.8 hPa | 0 mm | - | 0 W/m² | - |
| 1777278062 | 19.44° C | 96% | 1015.1 hPa | 0 mm | - | 0 W/m² | - |
| 1777277759 | 18.89° C | 96% | 1014.9 hPa | 0 mm | - | 0 W/m² | - |
* Rain latest hour (hover to see other rain measurements)
** Current wind speed in m/s (hover to see current wind gust speed)